period_start,C,m1,H,J0,J1,J2,J3,J4,J5,JA,JB,JC,JD,JJ,JK,JN,#
2016-06-13 00:04:23,0.00,1.26,0.00,21.16,27.74,31.31,14.83,46.64,1017.59,2034.08,3041.08,2796.99,3153.99,600.14,600.44,54.86,0000 0000 0000 0000 000000
2016-06-13 00:09:25,0.01,1.26,0.00,21.16,27.72,31.31,14.69,46.44,1017.59,2034.16,3041.07,2797.00,3153.99,599.41,599.90,54.91,0000 0000 0000 0000 000000
2016-06-13 00:14:26,0.02,1.26,0.00,21.12,27.72,31.28,14.82,46.67,1017.59,2034.41,3041.08,2797.00,3153.99,600.11,600.66,54.96,0000 0000 0000 0000 000000
2016-06-13 00:19:27,0.02,1.26,0.00,21.14,27.70,31.26,14.77,46.75,1017.59,2034.63,3041.05,2797.00,3153.99,599.98,600.35,55.01,0000 0000 0000 0000 000000
2016-06-13 00:24:28,0.01,1.26,0.00,21.15,27.70,31.27,14.71,46.46,1017.60,2034.75,3041.04,2797.00,3153.99,600.07,600.30,55.06,0000 0000 0000 0000 000000
2016-06-13 00:29:30,0.02,1.26,0.00,21.14,27.68,31.27,14.69,46.66,1017.62,2034.93,3041.07,2797.01,3154.00,599.74,600.13,55.11,0000 0000 0000 0000 000000
2016-06-13 00:34:31,-0.00,1.26,0.00,21.13,27.67,31.24,14.77,46.48,1017.62,2034.92,3041.02,2797.00,3154.00,600.18,600.48,55.16,0000 0000 0000 0000 000000
2016-06-13 00:39:32,0.00,1.26,0.00,21.11,27.66,31.24,14.67,46.61,1017.60,2034.96,3041.01,2797.00,3154.00,599.65,600.28,55.21,0000 0000 0000 0000 000000
2016-06-13 00:44:34,-0.00,1.26,0.00,21.16,27.65,31.21,14.69,46.57,1017.61,2034.97,3041.00,2797.00,3154.00,599.39,599.84,55.26,0000 0000 0000 0000 000000
2016-06-13 00:49:35,0.00,1.26,0.00,21.04,27.65,31.22,14.83,46.73,1017.63,2034.98,3041.00,2797.00,3154.00,600.13,600.80,55.31,0000 0000 0000 0000 000000
2016-06-13 00:54:36,0.00,1.26,0.00,21.12,27.63,31.22,14.81,46.67,1017.63,2034.98,3041.01,2797.00,3154.00,600.11,600.53,55.36,0000 0000 0000 0000 000000
2016-06-13 00:59:38,0.00,1.26,0.00,21.18,27.62,31.20,14.77,46.58,1017.70,2034.99,3041.00,2797.00,3153.99,600.39,600.90,55.41,0000 0000 0000 0000 000000
2016-06-13 01:04:39,0.00,1.26,0.00,21.19,27.62,31.20,14.75,46.66,1017.84,2034.99,3040.99,2797.01,3153.99,599.25,599.68,55.46,0000 0000 0000 0000 000000
2016-06-13 01:09:40,0.00,1.26,0.00,21.12,27.61,31.21,14.73,46.39,1017.81,2034.99,3041.00,2797.02,3154.00,599.85,600.39,55.52,0000 0000 0000 0000 000000
2016-06-13 01:14:41,0.00,1.26,0.00,21.14,27.60,31.20,14.76,46.73,1017.83,2034.99,3040.99,2797.00,3154.00,600.02,600.52,55.57,0000 0000 0000 0000 000000
2016-06-13 01:19:42,0.00,1.26,0.00,21.18,27.60,31.18,14.66,46.24,1017.79,2034.99,3040.99,2797.00,3154.00,599.61,599.96,55.62,0000 0000 0000 0000 000000
2016-06-13 01:24:43,0.00,1.26,0.00,21.15,27.60,31.19,14.72,46.62,1017.67,2034.99,3040.98,2797.00,3153.99,599.86,600.16,55.67,0000 0000 0000 0000 000000
2016-06-13 01:29:45,0.00,1.26,0.00,21.20,27.60,31.20,14.67,46.31,1017.89,2034.99,3040.98,2797.00,3153.99,599.56,599.98,55.72,0000 0000 0000 0000 000000
2016-06-13 01:34:46,0.00,1.26,0.00,21.19,27.59,31.18,14.79,46.63,1018.06,2034.99,3040.99,2797.00,3153.99,600.24,600.89,55.77,0000 0000 0000 0000 000000
2016-06-13 01:39:47,0.00,1.26,0.00,21.08,27.59,31.18,14.86,46.84,1018.07,2034.99,3040.97,2797.00,3153.98,600.27,601.07,55.82,0000 0000 0000 0000 000000
2016-06-13 01:44:49,0.00,1.26,0.00,21.15,27.59,31.19,14.71,46.76,1018.08,2034.99,3040.94,2796.99,3153.97,599.47,600.08,55.87,0000 0000 0000 0000 000000
2016-06-13 01:49:50,0.00,1.26,0.00,21.20,27.59,31.16,14.68,46.56,1018.08,2034.99,3040.87,2796.99,3153.94,599.73,600.29,55.92,0000 0000 0000 0000 000000
2016-06-13 01:54:52,0.01,1.26,0.00,21.18,27.59,31.19,14.75,46.85,1018.08,2034.99,3040.60,2796.97,3153.91,599.83,600.43,55.97,0000 0000 0000 0000 000000
2016-06-13 01:59:53,0.01,1.26,0.00,21.19,27.59,31.18,14.86,46.91,1018.09,2034.99,3040.25,2796.96,3153.73,600.18,600.83,56.02,0000 0000 0000 0000 000000
2016-06-13 02:04:55,0.01,1.26,0.00,21.21,27.60,31.19,14.73,46.54,1018.09,2034.99,3040.03,2796.82,3153.30,599.28,599.92,56.07,0000 0000 0000 0000 000000
2016-06-13 02:09:56,0.01,1.26,0.00,21.23,27.60,31.19,14.87,46.75,1018.10,2034.99,3040.02,2796.58,3153.11,600.59,600.91,56.12,0000 0000 0000 0000 000000
2016-06-13 02:14:58,0.01,1.26,0.00,21.24,27.60,31.17,14.71,46.46,1018.09,2034.99,3040.00,2796.27,3153.04,599.69,600.03,56.17,0000 0000 0000 0000 000000
2016-06-13 02:19:59,0.00,1.26,0.00,21.22,27.60,31.18,14.68,46.40,1018.10,2034.99,3040.00,2796.07,3153.00,599.62,600.11,56.22,0000 0000 0000 0000 000000
2016-06-13 02:25:00,0.00,1.26,0.00,21.22,27.60,31.19,14.77,46.87,1018.10,2034.99,3040.00,2796.03,3153.00,600.19,600.72,56.27,0000 0000 0000 0000 000000
2016-06-13 02:30:01,0.00,1.26,0.00,21.25,27.60,31.20,14.73,46.50,1018.10,2034.99,3040.00,2796.02,3153.00,600.35,600.76,56.32,0000 0000 0000 0000 000000
2016-06-13 02:35:03,0.00,1.26,0.00,21.24,27.62,31.22,14.78,46.67,1018.16,2034.99,3040.00,2796.01,3153.00,599.71,600.28,56.37,0000 0000 0000 0000 000000
2016-06-13 02:40:03,0.00,1.26,0.00,21.32,27.62,31.21,14.76,46.53,1018.35,2034.99,3039.98,2796.00,3153.00,600.07,600.43,56.42,0000 0000 0000 0000 000000
2016-06-13 02:45:05,0.00,1.26,0.00,21.31,27.62,31.21,14.71,46.68,1018.43,2034.99,3039.84,2795.99,3152.94,600.04,600.52,56.47,0000 0000 0000 0000 000000
2016-06-13 02:50:06,0.01,1.26,0.00,21.31,27.63,31.23,14.70,46.85,1018.48,2034.99,3039.36,2795.99,3152.67,599.96,600.59,56.52,0000 0000 0000 0000 000000
2016-06-13 02:55:07,0.01,1.27,0.00,21.30,27.65,31.25,14.77,46.51,1018.56,2034.98,3039.10,2795.96,3152.25,600.28,600.79,56.58,0000 0000 0000 0000 000000
2016-06-13 03:00:08,0.00,1.27,0.00,21.33,27.65,31.23,14.78,46.69,1018.57,2034.99,3039.02,2795.88,3152.08,600.12,600.62,56.63,0000 0000 0000 0000 000000
2016-06-13 03:05:09,0.01,1.27,0.00,21.29,27.66,31.24,14.71,46.62,1018.57,2034.99,3038.99,2795.51,3152.02,599.73,600.33,56.68,0000 0000 0000 0000 000000
2016-06-13 03:10:10,0.00,1.27,0.00,21.33,27.67,31.23,14.79,46.82,1018.57,2034.98,3038.99,2795.13,3152.00,600.13,600.59,56.73,0000 0000 0000 0000 000000
2016-06-13 03:15:12,-0.00,1.27,0.00,21.36,27.68,31.27,14.76,46.52,1018.58,2034.97,3038.95,2795.04,3152.00,600.23,600.66,56.78,0000 0000 0000 0000 000000
2016-06-13 03:20:13,-0.00,1.27,0.00,21.38,27.70,31.26,14.74,46.68,1018.64,2034.96,3038.95,2795.00,3152.00,599.78,600.21,56.83,0000 0000 0000 0000 000000
2016-06-13 03:25:14,0.00,1.27,0.00,21.37,27.70,31.28,14.75,46.73,1018.68,2034.96,3038.97,2795.01,3151.99,599.86,600.41,56.88,0000 0000 0000 0000 000000
2016-06-13 03:30:16,0.00,1.27,0.00,21.37,27.72,31.28,14.66,46.68,1018.66,2034.94,3038.88,2795.00,3151.94,599.59,600.16,56.93,0000 0000 0000 0000 000000
2016-06-13 03:35:17,-0.03,1.27,0.00,21.32,27.72,31.30,14.74,46.63,1018.70,2034.65,3038.61,2794.99,3151.71,600.08,600.77,56.98,0000 0000 0000 0000 000000
2016-06-13 03:40:19,-0.00,1.27,0.00,21.35,27.75,31.30,14.73,46.65,1018.79,2034.37,3038.30,2794.96,3151.23,600.06,600.70,57.03,0000 0000 0000 0000 000000
2016-06-13 03:45:20,0.00,1.27,0.00,21.38,27.75,31.31,14.64,46.67,1018.89,2034.24,3038.02,2794.91,3151.04,599.96,600.68,57.08,0000 0000 0000 0000 000000
2016-06-13 03:50:22,0.01,1.27,0.00,21.41,27.76,31.33,14.78,46.75,1018.95,2034.15,3038.00,2794.70,3151.01,600.16,600.87,57.13,0000 0000 0000 0000 000000
2016-06-13 03:55:23,0.01,1.27,0.00,21.40,27.77,31.33,14.69,46.68,1018.99,2034.18,3037.99,2794.33,3151.00,600.01,600.65,57.18,0000 0000 0000 0000 000000
2016-06-13 04:00:24,-0.00,1.27,0.00,21.42,27.78,31.35,14.73,46.63,1019.05,2034.05,3037.99,2794.07,3150.99,599.95,600.53,57.23,0000 0000 0000 0000 000000
2016-06-13 04:05:26,0.00,1.27,0.00,21.40,27.80,31.37,14.73,46.62,1019.06,2034.03,3037.97,2794.01,3150.98,599.80,600.47,57.28,0000 0000 0000 0000 000000
2016-06-13 04:10:27,-0.00,1.27,0.00,21.45,27.80,31.37,14.79,46.86,1019.06,2034.03,3037.91,2794.00,3150.94,600.14,600.91,57.33,0000 0000 0000 0000 000000
2016-06-13 04:15:28,0.01,1.27,0.00,21.45,27.81,31.36,14.66,46.62,1019.06,2034.02,3037.51,2794.00,3150.67,599.80,600.28,57.38,0000 0000 0000 0000 000000
2016-06-13 04:20:30,0.01,1.27,0.00,21.51,27.82,31.38,14.70,46.52,1019.06,2034.00,3037.24,2794.00,3150.21,600.07,600.57,57.43,0000 0000 0000 0000 000000
2016-06-13 04:25:31,0.00,1.27,0.00,21.46,27.83,31.38,14.71,46.73,1019.06,2034.00,3037.05,2793.95,3150.02,599.78,600.58,57.48,0000 0000 0000 0000 000000
2016-06-13 04:30:32,0.00,1.27,0.00,21.42,27.85,31.38,14.74,46.88,1019.06,2034.00,3037.00,2793.88,3150.01,599.65,600.57,57.54,0000 0000 0000 0000 000000
2016-06-13 04:35:33,0.01,1.27,0.00,21.30,27.85,31.42,14.70,46.53,1019.06,2034.00,3037.00,2793.55,3150.00,599.53,600.37,57.59,0000 0000 0000 0000 000000
2016-06-13 04:40:34,0.01,1.27,0.00,21.12,27.85,31.43,14.81,46.88,1019.08,2033.99,3036.99,2793.35,3149.99,600.13,601.40,57.64,0000 0000 0000 0000 000000
2016-06-13 04:45:35,0.00,1.27,0.00,21.06,27.87,31.44,14.76,46.67,1019.10,2033.99,3036.97,2793.16,3149.99,599.59,601.00,57.69,0000 0000 0000 0000 000000
2016-06-13 04:50:37,0.00,1.27,0.00,21.07,27.87,31.41,14.85,46.76,1019.13,2033.99,3036.96,2793.06,3149.98,600.07,601.57,57.74,0000 0000 0000 0000 000000
2016-06-13 04:55:38,0.00,1.27,0.00,21.15,27.87,31.41,14.67,46.64,1019.14,2033.99,3036.89,2793.01,3149.96,599.81,601.08,57.79,0000 0000 0000 0000 000000
2016-06-13 05:00:39,0.00,1.27,0.00,21.17,27.90,31.40,14.84,46.81,1019.19,2033.99,3036.80,2793.01,3149.91,599.91,601.12,57.84,0000 0000 0000 0000 000000
2016-06-13 05:05:40,0.01,1.27,0.00,21.19,27.90,31.40,14.75,46.87,1019.12,2033.98,3036.58,2793.00,3149.62,599.69,600.93,57.89,0000 0000 0000 0000 000000
2016-06-13 05:10:42,0.01,1.27,0.00,21.18,27.91,31.39,14.76,46.70,1019.39,2033.95,3036.20,2793.00,3149.13,600.21,601.59,57.94,0000 0000 0000 0000 000000
2016-06-13 05:15:43,0.00,1.27,0.00,21.30,27.92,31.38,14.80,47.00,1019.52,2033.96,3036.05,2792.97,3149.03,600.13,601.20,57.99,0000 0000 0000 0000 000000
2016-06-13 05:20:44,0.00,1.27,0.00,21.38,27.93,31.37,14.74,46.75,1019.55,2033.94,3036.09,2792.96,3149.01,599.95,600.99,58.04,0000 0000 0000 0000 000000
2016-06-13 05:25:46,-0.01,1.27,0.00,21.42,27.95,31.35,14.68,46.65,1019.55,2033.80,3036.01,2792.86,3149.00,599.56,600.56,58.09,0000 0000 0000 0000 000000
2016-06-13 05:30:47,-0.00,1.27,0.00,21.48,27.95,31.35,14.75,47.02,1019.55,2033.62,3036.00,2792.51,3149.00,600.14,601.00,58.14,0000 0000 0000 0000 000000
2016-06-13 05:35:48,-0.01,1.27,0.00,21.45,27.96,31.37,14.83,46.81,1019.55,2033.41,3036.00,2792.21,3148.99,600.40,601.31,58.19,0000 0000 0000 0000 000000
2016-06-13 05:40:49,-0.00,1.27,0.00,21.40,27.97,31.39,14.77,46.91,1019.55,2033.27,3035.98,2792.05,3148.96,599.94,600.89,58.24,0000 0000 0000 0000 000000
2016-06-13 05:45:50,-0.00,1.27,0.00,21.28,27.97,31.40,14.79,46.82,1019.55,2033.10,3035.83,2792.01,3148.65,599.95,601.20,58.29,0000 0000 0000 0000 000000
2016-06-13 05:50:52,0.00,1.27,0.00,21.23,27.98,31.41,14.84,47.18,1019.54,2033.04,3035.34,2792.00,3148.14,600.23,601.65,58.34,0000 0000 0000 0000 000000
2016-06-13 05:55:53,0.00,1.27,0.00,21.32,27.99,31.42,14.66,46.54,1019.55,2033.04,3035.33,2792.00,3148.07,599.77,601.01,58.39,0000 0000 0000 0000 000000
2016-06-13 06:00:54,-0.00,1.27,0.00,21.39,28.00,31.42,14.70,46.72,1019.56,2033.01,3035.34,2792.00,3148.09,600.09,601.11,58.44,0000 0000 0000 0000 000000
2016-06-13 06:05:56,0.00,1.27,0.00,21.49,28.00,31.44,14.73,46.72,1019.56,2033.03,3035.06,2792.00,3148.02,600.18,600.95,58.49,0000 0000 0000 0000 000000
2016-06-13 06:10:57,-0.00,1.27,0.00,21.42,28.00,31.43,14.71,46.94,1019.59,2033.02,3035.00,2791.99,3148.00,600.26,601.25,58.55,0000 0000 0000 0000 000000
2016-06-13 06:15:58,0.00,1.27,0.00,21.29,28.00,31.48,14.78,46.72,1019.71,2033.01,3035.00,2791.98,3148.01,600.02,601.23,58.60,0000 0000 0000 0000 000000
2016-06-13 06:20:59,0.00,1.27,0.00,21.34,28.02,31.49,14.75,46.73,1019.70,2033.00,3035.00,2791.96,3148.00,599.82,601.03,58.65,0000 0000 0000 0000 000000
2016-06-13 06:26:01,0.00,1.27,0.00,21.32,28.02,31.50,14.89,46.94,1019.89,2033.02,3034.99,2791.95,3148.00,600.25,601.61,58.70,0000 0000 0000 0000 000000
2016-06-13 06:31:02,0.00,1.27,0.00,21.26,28.02,31.48,14.74,46.69,1020.02,2033.01,3034.98,2791.90,3148.00,600.21,601.72,58.75,0000 0000 0000 0000 000000
2016-06-13 06:36:03,0.00,1.27,0.00,21.28,28.02,31.50,14.79,46.83,1020.03,2033.01,3034.97,2791.92,3148.00,599.76,601.25,58.80,0000 0000 0000 0000 000000
2016-06-13 06:41:04,0.00,1.27,0.00,21.37,28.02,31.51,14.80,46.77,1020.03,2033.01,3034.91,2791.85,3147.99,599.54,600.90,58.85,0000 0000 0000 0000 000000
2016-06-13 06:46:05,0.01,1.27,0.00,21.43,28.02,31.49,14.73,46.63,1020.04,2033.00,3034.83,2791.68,3147.98,599.49,600.80,58.90,0000 0000 0000 0000 000000
2016-06-13 06:51:06,0.01,1.27,0.00,21.48,28.03,31.48,14.88,47.13,1020.04,2033.01,3034.48,2791.39,3147.96,600.37,601.48,58.95,0000 0000 0000 0000 000000
2016-06-13 06:56:07,0.00,1.27,0.00,21.60,28.04,31.50,14.82,46.91,1020.04,2033.01,3034.40,2791.41,3147.96,600.21,600.88,59.00,0000 0000 0000 0000 000000
2016-06-13 07:01:09,0.02,1.27,0.00,21.56,28.05,31.52,14.84,47.13,1020.05,2033.01,3034.18,2791.17,3147.83,599.90,600.79,59.05,0000 0000 0000 0000 000000
2016-06-13 07:06:10,0.01,1.27,0.00,21.51,28.05,31.53,14.78,47.08,1020.05,2033.00,3034.02,2791.04,3147.31,600.09,601.12,59.10,0000 0000 0000 0000 000000
2016-06-13 07:11:12,0.00,1.27,0.00,21.57,28.05,31.55,14.69,46.91,1020.09,2033.00,3034.00,2791.01,3147.07,599.22,600.17,59.15,0000 0000 0000 0000 000000
2016-06-13 07:16:13,0.00,1.27,0.00,21.63,28.05,31.54,14.79,46.83,1020.21,2033.00,3033.96,2791.00,3147.02,599.97,601.02,59.20,0000 0000 0000 0000 000000
2016-06-13 07:21:14,-0.00,1.27,0.00,21.64,28.05,31.57,14.70,46.83,1020.45,2033.00,3033.98,2791.01,3147.05,599.71,600.75,59.25,0000 0000 0000 0000 000000
2016-06-13 07:26:15,0.00,1.27,0.00,21.57,28.05,31.59,14.73,46.58,1020.51,2033.00,3033.99,2791.01,3147.07,599.65,600.90,59.30,0000 0000 0000 0000 000000
2016-06-13 07:31:17,0.00,1.27,0.00,21.58,28.05,31.60,14.76,46.62,1020.52,2033.00,3033.98,2791.00,3147.04,599.76,600.90,59.35,0000 0000 0000 0000 000000
2016-06-13 07:36:18,0.00,1.27,0.00,21.62,28.05,31.60,14.79,46.53,1020.52,2033.00,3033.89,2791.00,3147.01,600.38,601.06,59.40,0000 0000 0000 0000 000000
2016-06-13 07:41:19,0.00,1.27,0.00,21.59,28.05,31.62,14.76,46.61,1020.52,2033.00,3033.91,2791.00,3147.01,600.26,601.45,59.45,0000 0000 0000 0000 000000
2016-06-13 07:46:21,0.00,1.27,0.00,21.64,28.05,31.63,14.77,46.59,1020.52,2033.00,3033.94,2791.00,3147.01,600.12,601.28,59.50,0000 0000 0000 0000 000000
2016-06-13 07:51:22,0.00,1.27,0.00,21.64,28.05,31.64,14.70,46.44,1020.53,2033.00,3033.95,2791.00,3147.01,600.47,601.59,59.55,0000 0000 0000 0000 000000
2016-06-13 07:56:23,0.00,1.27,0.00,21.59,28.06,31.65,14.85,47.02,1020.53,2033.00,3033.94,2791.00,3147.00,599.93,601.19,59.61,0000 0000 0000 0000 000000
2016-06-13 08:01:25,0.00,0.42,0.00,21.64,28.09,31.67,13.06,41.02,1020.53,2033.67,3412.62,3022.78,3427.34,536.41,537.39,0.03,0000 0000 0000 0000 000002
2016-06-13 08:06:26,0.00,0.00,0.00,21.68,28.10,31.64,14.73,46.05,1020.62,2034.01,3598.35,3137.98,3567.94,599.84,600.92,0.04,0000 0000 0000 0000 000000
2016-06-13 08:11:27,0.00,0.00,0.00,21.67,28.10,31.66,14.76,46.15,1020.75,2034.00,3597.39,3137.52,3567.15,599.79,601.00,0.09,0000 0000 0000 0000 000000
2016-06-13 08:16:28,0.00,0.00,0.00,21.61,28.10,31.69,14.77,46.18,1020.67,2034.00,3596.99,3137.06,3566.98,600.35,601.66,0.14,0000 0000 0000 0000 000000
2016-06-13 08:21:29,0.00,0.00,0.00,21.63,28.12,31.69,14.79,46.23,1020.83,2034.00,3596.71,3137.01,3566.73,600.13,601.38,0.19,0000 0000 0000 0000 000000
2016-06-13 08:26:30,0.01,0.00,0.00,21.62,28.12,31.71,14.73,46.07,1020.95,2034.00,3596.11,3137.00,3566.13,599.78,601.15,0.24,0000 0000 0000 0000 000000
2016-06-13 08:31:31,0.00,0.00,0.00,21.55,28.14,31.73,14.78,46.08,1021.00,2034.00,3595.99,3137.00,3566.00,599.64,601.19,0.29,0000 0000 0000 0000 000000
2016-06-13 08:36:32,0.01,0.00,0.00,21.59,28.15,31.73,14.78,46.08,1021.01,2034.00,3595.79,3136.96,3565.92,599.96,601.33,0.34,0000 0000 0000 0000 000000
2016-06-13 08:41:34,0.04,0.00,0.00,21.61,28.15,31.73,14.79,45.99,1021.01,2034.00,3594.94,3136.58,3565.28,599.99,601.38,0.39,0000 0000 0000 0000 000000
2016-06-13 08:46:35,0.04,0.00,0.00,21.68,28.17,31.74,14.77,46.17,1021.02,2034.00,3593.74,3135.94,3564.24,600.32,601.47,0.44,0000 0000 0000 0000 000000
2016-06-13 08:51:36,0.00,0.01,0.00,21.71,28.17,31.74,14.78,46.05,1021.03,2033.99,3593.18,3135.80,3564.03,600.16,601.47,0.50,0000 0000 0000 0000 000000
2016-06-13 08:56:37,0.01,0.01,0.00,21.75,28.17,31.75,14.78,46.13,1021.04,2033.98,3593.03,3135.43,3564.00,600.20,601.38,0.55,0000 0000 0000 0000 000000
2016-06-13 09:01:38,0.00,0.01,0.00,21.78,28.17,31.76,14.82,45.91,1021.07,2033.98,3593.00,3135.16,3564.00,600.09,601.32,0.60,0000 0000 0000 0000 000000
2016-06-13 09:06:40,0.00,0.01,0.00,21.77,28.17,31.77,14.75,45.90,1021.17,2033.98,3593.00,3135.08,3563.99,600.26,601.47,0.65,0000 0000 0000 0000 000000
2016-06-13 09:11:41,-0.00,0.01,0.00,21.72,28.17,31.77,14.73,46.02,1021.43,2033.96,3592.97,3135.01,3563.90,599.89,601.33,0.70,0000 0000 0000 0000 000000
2016-06-13 09:16:42,0.01,0.01,0.00,21.75,28.17,31.78,14.77,46.11,1021.49,2033.93,3592.84,3135.00,3563.61,599.94,601.35,0.75,0000 0000 0000 0000 000000
2016-06-13 09:21:44,0.01,0.01,0.00,21.85,28.17,31.79,14.73,45.93,1021.50,2033.95,3592.59,3135.01,3563.29,599.94,601.16,0.80,0000 0000 0000 0000 000000
2016-06-13 09:26:45,0.00,0.01,0.00,21.75,28.17,31.78,14.72,45.92,1021.50,2033.95,3592.45,3135.01,3563.16,599.98,601.39,0.85,0000 0000 0000 0000 000000
2016-06-13 09:31:46,0.00,0.01,0.00,21.72,28.17,31.80,14.76,45.96,1021.50,2033.94,3592.12,3135.00,3563.06,600.27,601.76,0.90,0000 0000 0000 0000 000000
2016-06-13 09:36:47,0.00,0.01,0.00,21.73,28.17,31.75,14.71,45.78,1021.50,2033.95,3592.01,3135.00,3563.02,599.70,601.31,0.95,0000 0000 0000 0000 000000
2016-06-13 09:41:48,0.00,0.01,0.00,21.79,28.17,31.77,14.81,45.86,1021.50,2033.95,3592.01,3135.00,3563.00,600.42,601.68,1.00,0000 0000 0000 0000 000000
2016-06-13 09:46:49,-0.00,0.01,0.00,21.78,28.17,31.76,14.65,45.93,1021.50,2033.95,3592.00,3135.00,3563.00,599.77,601.08,1.05,0000 0000 0000 0000 000000
2016-06-13 09:51:51,0.00,0.01,0.00,21.70,28.17,31.79,14.75,46.08,1021.50,2033.93,3592.00,3135.00,3563.00,599.63,601.24,1.10,0000 0000 0000 0000 000000
2016-06-13 09:56:52,0.00,0.01,0.00,21.71,28.17,31.78,14.80,46.05,1021.51,2033.92,3592.00,3135.00,3562.99,600.11,601.70,1.15,0000 0000 0000 0000 000000
2016-06-13 10:01:53,0.00,0.01,0.00,21.70,28.17,31.80,14.82,45.83,1021.51,2033.96,3591.99,3135.00,3562.99,600.30,601.88,1.20,0000 0000 0000 0000 000000
2016-06-13 10:06:54,-0.00,0.01,0.00,21.64,28.17,31.80,14.80,45.90,1021.51,2033.93,3591.98,3135.00,3562.98,600.26,601.75,1.25,0000 0000 0000 0000 000000
2016-06-13 10:11:55,0.00,0.01,0.00,21.60,28.17,31.80,14.81,45.94,1021.50,2033.94,3591.97,3135.00,3562.96,600.45,602.16,1.30,0000 0000 0000 0000 000000
2016-06-13 10:16:56,0.00,0.01,0.00,21.57,28.17,31.80,14.80,45.84,1021.51,2033.94,3591.93,3135.00,3562.94,600.41,602.29,1.35,0000 0000 0000 0000 000000
2016-06-13 10:21:57,0.00,0.01,0.00,21.63,28.17,31.78,14.75,45.98,1021.52,2033.96,3591.91,3135.00,3562.92,599.72,601.39,1.40,0000 0000 0000 0000 000000
2016-06-13 10:26:59,0.00,0.01,0.00,21.60,28.17,31.75,14.75,45.90,1021.51,2033.96,3591.81,3134.99,3562.86,600.00,601.78,1.45,0000 0000 0000 0000 000000
2016-06-13 10:32:00,-0.00,0.01,0.00,21.60,28.17,31.76,14.85,46.05,1021.53,2033.98,3591.87,3134.99,3562.86,600.50,602.18,1.50,0000 0000 0000 0000 000000
2016-06-13 10:37:01,0.00,0.01,0.00,21.56,28.15,31.75,14.76,45.89,1021.51,2033.97,3591.84,3134.99,3562.86,599.92,601.73,1.55,0000 0000 0000 0000 000000
2016-06-13 10:42:02,0.01,0.01,0.00,21.56,28.15,31.75,14.83,45.99,1021.51,2033.98,3591.58,3134.99,3562.76,600.10,601.83,1.60,0000 0000 0000 0000 000000
2016-06-13 10:47:04,0.00,0.01,0.00,21.61,28.15,31.73,14.75,45.97,1021.51,2033.97,3591.23,3134.99,3562.59,600.06,601.81,1.65,0000 0000 0000 0000 000000
2016-06-13 10:52:05,0.00,0.01,0.00,21.59,28.15,31.72,14.77,45.99,1021.51,2033.98,3591.17,3134.99,3562.58,600.01,601.80,1.70,0000 0000 0000 0000 000000
2016-06-13 10:57:06,0.00,0.01,0.00,21.55,28.15,31.72,14.78,46.00,1021.51,2033.98,3591.04,3134.99,3562.29,600.09,601.92,1.75,0000 0000 0000 0000 000000
2016-06-13 11:02:08,0.00,0.01,0.00,21.54,28.15,31.72,14.80,45.94,1021.52,2033.99,3591.00,3134.99,3562.13,599.84,601.73,1.80,0000 0000 0000 0000 000000
2016-06-13 11:07:09,0.00,0.01,0.00,21.63,28.15,31.54,14.76,45.85,1021.54,2033.99,3591.00,3134.96,3562.05,599.80,601.48,1.85,0000 0000 0000 0000 000000
2016-06-13 11:12:10,0.00,0.01,0.00,21.64,28.15,31.23,14.71,46.03,1021.62,2033.98,3591.00,3134.91,3562.01,599.72,601.47,1.90,0000 0000 0000 0000 000000
2016-06-13 11:17:11,0.01,0.01,0.00,21.70,28.15,31.17,14.76,45.96,1021.79,2033.99,3590.98,3134.72,3562.00,600.00,601.65,1.95,0000 0000 0000 0000 000000
2016-06-13 11:22:13,0.01,0.01,0.00,21.84,28.16,31.17,14.66,45.77,1021.95,2033.99,3590.92,3134.27,3562.00,599.97,601.44,2.00,0000 0000 0000 0000 000000
2016-06-13 11:27:14,0.01,0.01,0.00,21.80,28.17,31.16,14.76,45.86,1021.99,2033.99,3590.59,3134.03,3561.98,600.01,601.62,2.05,0000 0000 0000 0000 000000
2016-06-13 11:32:15,0.01,0.01,0.00,21.77,28.18,31.18,14.74,45.82,1021.99,2033.99,3590.07,3134.00,3561.56,600.02,601.70,2.10,0000 0000 0000 0000 000000
2016-06-13 11:37:17,0.00,0.01,0.00,21.74,28.20,31.23,14.74,45.91,1021.99,2033.99,3590.00,3134.00,3561.10,600.39,602.13,2.15,0000 0000 0000 0000 000000
2016-06-13 11:42:18,0.00,0.01,0.00,21.71,28.22,31.23,14.71,46.07,1021.99,2033.98,3590.00,3133.99,3561.00,599.66,601.61,2.20,0000 0000 0000 0000 000000
2016-06-13 11:47:19,0.00,0.01,0.00,21.72,28.23,31.29,14.72,46.13,1021.99,2033.97,3589.96,3133.95,3561.00,599.85,601.68,2.25,0000 0000 0000 0000 000000
2016-06-13 11:52:20,0.02,0.01,0.00,21.67,28.25,31.38,14.76,46.17,1021.99,2033.94,3589.47,3133.68,3560.97,599.97,601.86,2.30,0000 0000 0000 0000 000000
2016-06-13 11:57:22,0.01,0.01,0.00,21.61,28.25,31.56,14.78,46.40,1021.99,2033.87,3589.02,3133.09,3560.44,599.89,601.99,2.35,0000 0000 0000 0000 000000
2016-06-13 12:02:23,-0.02,0.01,0.00,21.59,28.27,31.84,14.82,46.31,1022.00,2033.60,3588.98,3133.00,3560.01,600.30,602.27,2.40,0000 0000 0000 0000 000000
2016-06-13 12:07:24,-0.02,0.01,0.00,21.67,28.27,31.89,14.75,46.44,1022.00,2033.27,3588.72,3133.00,3560.00,599.73,601.86,2.45,0000 0000 0000 0000 000000
2016-06-13 12:12:25,0.01,0.01,0.00,21.66,28.27,31.93,14.79,46.62,1022.00,2033.27,3588.17,3132.99,3560.00,600.30,602.23,2.50,0000 0000 0000 0000 000000
2016-06-13 12:17:26,-0.01,0.01,0.00,21.62,28.27,31.92,14.84,46.52,1022.01,2033.19,3588.01,3132.98,3559.99,600.10,602.04,2.55,0000 0000 0000 0000 000000
2016-06-13 12:22:27,-0.00,0.01,0.00,21.57,28.27,31.88,14.77,46.49,1022.02,2033.13,3588.00,3132.93,3559.96,600.33,602.38,2.60,0000 0000 0000 0000 000000
2016-06-13 12:27:29,0.02,0.01,0.00,21.51,28.25,31.85,14.81,46.65,1022.02,2033.27,3587.97,3132.86,3559.96,600.16,602.31,2.65,0000 0000 0000 0000 000000
2016-06-13 12:32:30,0.03,0.01,0.00,21.54,28.25,31.83,14.79,46.50,1022.01,2033.54,3587.96,3132.88,3559.95,599.85,602.06,2.70,0000 0000 0000 0000 000000
2016-06-13 12:37:32,0.02,0.02,0.00,21.57,28.25,31.79,14.83,46.48,1022.09,2033.71,3587.68,3132.67,3559.86,599.98,602.08,2.75,0000 0000 0000 0000 000000
2016-06-13 12:42:33,0.01,0.02,0.00,21.63,28.23,31.79,14.71,46.17,1022.29,2033.77,3587.21,3132.47,3559.73,599.52,601.77,2.80,0000 0000 0000 0000 000000
2016-06-13 12:47:34,0.01,0.02,0.00,21.59,28.22,31.79,14.89,46.48,1022.46,2033.87,3587.11,3132.42,3559.62,600.32,602.70,2.86,0000 0000 0000 0000 000000
2016-06-13 12:52:36,0.01,0.02,0.00,21.50,28.22,31.77,14.75,46.33,1022.47,2033.94,3587.03,3132.29,3559.36,599.88,602.30,2.91,0000 0000 0000 0000 000000
2016-06-13 12:57:37,0.00,0.02,0.00,21.47,28.21,31.77,14.90,46.53,1022.48,2033.95,3587.00,3132.18,3559.18,600.27,602.88,2.96,0000 0000 0000 0000 000000